Location: Gorze? G�rny
(49.8500°N, 19.5000°E)
Time: 10:46:07
(UTC+00:00)

Meteor 1-13 Rocket - Pass Details

Date: 13 May 2021
Orbit: 830 x 912 km, 81.3° (Epoch: 22 June)

Event Time Altitude Azimuth Distance (km) Brightness Sun altitude
Exits shadow 22:39:54 45° 193° (SSW) 1,122 4.4 -21.5°
Maximum altitude 22:41:41 88° 280° (W) 842 4.1 -21.5°
Drops below altitude 10° 22:47:15 10° 12° (NNE) 2,450 7.7 -21.5°
Sets 22:49:39 0° 13° (NNE) 3,388 8.8 -21.5°
